Year,Month,Day,Hour,Minute,Value (Times are PST for temperature in C)
2018,01,14,10,26,8.60
2018,01,14,10,27,8.60
2018,01,14,10,28,8.70
2018,01,14,10,29,8.70
2018,01,14,10,30,8.70
2018,01,14,10,31,8.70
2018,01,14,10,32,8.80
2018,01,14,10,33,8.80
2018,01,14,10,34,8.80
2018,01,14,10,35,8.80
2018,01,14,10,36,8.90
2018,01,14,10,37,8.90
2018,01,14,10,38,8.90
2018,01,14,10,39,9.00
2018,01,14,10,40,9.00
2018,01,14,10,41,9.10
2018,01,14,10,42,9.20
2018,01,14,10,43,9.20
2018,01,14,10,44,9.30
2018,01,14,10,45,9.40
2018,01,14,10,46,9.40
2018,01,14,10,47,9.50
2018,01,14,10,48,9.60
2018,01,14,10,49,9.60
2018,01,14,10,50,9.60
2018,01,14,10,51,9.70
2018,01,14,10,52,9.70
2018,01,14,10,53,9.80
2018,01,14,10,54,9.90
2018,01,14,10,55,9.90
2018,01,14,10,56,10.00
2018,01,14,10,57,10.10
2018,01,14,10,58,10.10
2018,01,14,10,59,10.10
2018,01,14,11,00,10.20
2018,01,14,11,01,10.20
2018,01,14,11,02,10.30
2018,01,14,11,03,10.30
2018,01,14,11,04,10.40
2018,01,14,11,05,10.40
2018,01,14,11,06,10.40
2018,01,14,11,07,10.50
2018,01,14,11,08,10.60
2018,01,14,11,09,10.60
2018,01,14,11,10,10.60
2018,01,14,11,11,10.70
2018,01,14,11,12,10.70
2018,01,14,11,13,10.80
2018,01,14,11,14,10.80
2018,01,14,11,15,10.90
2018,01,14,11,16,11.00
2018,01,14,11,17,11.00
2018,01,14,11,18,11.10
2018,01,14,11,19,11.10
2018,01,14,11,20,11.10
2018,01,14,11,21,11.20
2018,01,14,11,22,11.20
2018,01,14,11,23,11.30
2018,01,14,11,24,11.30
2018,01,14,11,25,11.40
2018,01,14,11,26,11.50
2018,01,14,11,27,11.50
2018,01,14,11,28,11.50
2018,01,14,11,29,11.60
2018,01,14,11,30,11.60
2018,01,14,11,31,11.60
2018,01,14,11,32,11.60
2018,01,14,11,33,11.60
2018,01,14,11,34,11.60
2018,01,14,11,35,11.50
2018,01,14,11,36,11.50
2018,01,14,11,37,11.50
2018,01,14,11,38,11.60
2018,01,14,11,39,11.60
2018,01,14,11,40,11.70
2018,01,14,11,41,11.70
2018,01,14,11,42,11.80
2018,01,14,11,43,11.80
2018,01,14,11,44,11.90
2018,01,14,11,45,12.00
2018,01,14,11,46,12.00
2018,01,14,11,47,12.10
2018,01,14,11,48,12.10
2018,01,14,11,49,12.20
2018,01,14,11,50,12.20
2018,01,14,11,51,12.20
2018,01,14,11,52,12.20
2018,01,14,11,53,12.20
2018,01,14,11,54,12.20
2018,01,14,11,55,12.20
2018,01,14,11,56,12.10
2018,01,14,11,57,12.10
2018,01,14,11,58,12.10
2018,01,14,11,59,12.10
2018,01,14,12,00,12.10
2018,01,14,12,01,12.10
2018,01,14,12,02,12.10
2018,01,14,12,03,12.10
2018,01,14,12,04,12.10
2018,01,14,12,05,12.10
2018,01,14,12,06,12.10
2018,01,14,12,07,12.10
2018,01,14,12,08,12.10
2018,01,14,12,09,12.10
2018,01,14,12,10,12.10
2018,01,14,12,11,12.10
2018,01,14,12,12,12.20
2018,01,14,12,13,12.20
2018,01,14,12,14,12.20
2018,01,14,12,15,12.10
2018,01,14,12,16,12.20
2018,01,14,12,17,12.20
2018,01,14,12,18,12.20
2018,01,14,12,19,12.20
2018,01,14,12,20,12.20
2018,01,14,12,21,12.30
2018,01,14,12,22,12.30
2018,01,14,12,23,12.30
2018,01,14,12,24,12.30
2018,01,14,12,25,12.30
2018,01,14,12,26,12.30
2018,01,14,12,27,12.30
2018,01,14,12,28,12.40
2018,01,14,12,29,12.40
2018,01,14,12,30,12.50
2018,01,14,12,31,12.50
2018,01,14,12,32,12.60
2018,01,14,12,33,12.60
2018,01,14,12,34,12.70
2018,01,14,12,35,12.80
2018,01,14,12,36,12.80
2018,01,14,12,37,12.90
2018,01,14,12,38,12.90
2018,01,14,12,39,12.90
2018,01,14,12,40,12.90
2018,01,14,12,41,12.90
2018,01,14,12,42,12.90
2018,01,14,12,43,12.90
2018,01,14,12,44,12.90
2018,01,14,12,45,12.90
2018,01,14,12,46,12.80
2018,01,14,12,47,12.80
2018,01,14,12,48,12.80
2018,01,14,12,49,12.80
2018,01,14,12,50,12.80
2018,01,14,12,51,12.80
2018,01,14,12,52,12.80
2018,01,14,12,53,12.80
2018,01,14,12,54,12.90
2018,01,14,12,55,12.90
2018,01,14,12,56,12.90
2018,01,14,12,57,13.00
2018,01,14,12,58,13.00
2018,01,14,12,59,13.10
2018,01,14,13,00,13.10
2018,01,14,13,01,13.10
2018,01,14,13,02,13.10
2018,01,14,13,03,13.10
2018,01,14,13,04,13.10
2018,01,14,13,05,13.10
2018,01,14,13,06,13.10
2018,01,14,13,07,13.10
2018,01,14,13,08,13.10
2018,01,14,13,09,13.20
2018,01,14,13,10,13.20
2018,01,14,13,11,13.30
2018,01,14,13,12,13.30
2018,01,14,13,13,13.40
2018,01,14,13,14,13.40
2018,01,14,13,15,13.50
2018,01,14,13,16,13.50
2018,01,14,13,17,13.50
2018,01,14,13,18,13.40
2018,01,14,13,19,13.40
2018,01,14,13,20,13.40
2018,01,14,13,21,13.40
2018,01,14,13,22,13.30
2018,01,14,13,23,13.30
2018,01,14,13,24,13.30
2018,01,14,13,25,13.30
2018,01,14,13,26,13.30
2018,01,14,13,27,13.30
2018,01,14,13,28,13.30
2018,01,14,13,29,13.30
2018,01,14,13,30,13.30
2018,01,14,13,31,13.30
2018,01,14,13,32,13.30
2018,01,14,13,33,13.30
2018,01,14,13,34,13.30
2018,01,14,13,35,13.20
2018,01,14,13,36,13.20
2018,01,14,13,37,13.20
2018,01,14,13,38,13.20
2018,01,14,13,39,13.20
2018,01,14,13,40,13.20
2018,01,14,13,41,13.20
2018,01,14,13,42,13.20
2018,01,14,13,43,13.20
2018,01,14,13,44,13.20
2018,01,14,13,45,13.20
2018,01,14,13,46,13.20
2018,01,14,13,47,13.20
2018,01,14,13,48,13.20
2018,01,14,13,49,13.30
2018,01,14,13,50,13.30
2018,01,14,13,51,13.30
2018,01,14,13,52,13.30
2018,01,14,13,53,13.30
2018,01,14,13,54,13.30
2018,01,14,13,55,13.30
2018,01,14,13,56,13.30
2018,01,14,13,57,13.30
2018,01,14,13,58,13.30
2018,01,14,13,59,13.20
2018,01,14,14,00,13.20
2018,01,14,14,01,13.20
2018,01,14,14,02,13.20
2018,01,14,14,03,13.20
2018,01,14,14,04,13.20
2018,01,14,14,05,13.20
2018,01,14,14,06,13.30
2018,01,14,14,07,13.30
2018,01,14,14,08,13.20
2018,01,14,14,09,13.20
2018,01,14,14,10,13.20
2018,01,14,14,11,13.20
2018,01,14,14,12,13.20
2018,01,14,14,13,13.20
2018,01,14,14,14,13.20
2018,01,14,14,15,13.20
2018,01,14,14,16,13.20
2018,01,14,14,17,13.20
2018,01,14,14,18,13.20
2018,01,14,14,19,13.20
2018,01,14,14,20,13.30
2018,01,14,14,21,13.30
2018,01,14,14,22,13.30
2018,01,14,14,23,13.30
2018,01,14,14,24,13.30
2018,01,14,14,25,13.40
2018,01,14,14,26,13.40
2018,01,14,14,27,13.40
2018,01,14,14,28,13.50
2018,01,14,14,29,13.50
2018,01,14,14,30,13.60
2018,01,14,14,31,13.60
2018,01,14,14,32,13.70
2018,01,14,14,33,13.70
2018,01,14,14,34,13.80
2018,01,14,14,35,13.80
2018,01,14,14,36,13.80
2018,01,14,14,37,13.90
2018,01,14,14,38,13.90
2018,01,14,14,39,13.80
2018,01,14,14,40,13.80
2018,01,14,14,41,13.70
2018,01,14,14,42,13.70
2018,01,14,14,43,13.60
2018,01,14,14,44,13.60
2018,01,14,14,45,13.60
2018,01,14,14,46,13.50
2018,01,14,14,47,13.50
2018,01,14,14,48,13.50
2018,01,14,14,49,13.60
2018,01,14,14,50,13.60
2018,01,14,14,51,13.60
2018,01,14,14,52,13.60
2018,01,14,14,53,13.60
2018,01,14,14,54,13.60
2018,01,14,14,55,13.50
2018,01,14,14,56,13.50
2018,01,14,14,57,13.50
2018,01,14,14,58,13.50
2018,01,14,14,59,13.60
2018,01,14,15,00,13.60
2018,01,14,15,01,13.60
2018,01,14,15,02,13.60
2018,01,14,15,03,13.60
2018,01,14,15,04,13.70
2018,01,14,15,05,13.70
2018,01,14,15,06,13.70
2018,01,14,15,07,13.70
2018,01,14,15,08,13.60
2018,01,14,15,09,13.60
2018,01,14,15,10,13.50
2018,01,14,15,11,13.50
2018,01,14,15,12,13.40
2018,01,14,15,13,13.50
2018,01,14,15,14,13.50
2018,01,14,15,15,13.50
2018,01,14,15,16,13.50
2018,01,14,15,17,13.60
2018,01,14,15,18,13.60
2018,01,14,15,19,13.60
2018,01,14,15,20,13.60
2018,01,14,15,21,13.60
2018,01,14,15,22,13.50
2018,01,14,15,23,13.50
2018,01,14,15,24,13.40
2018,01,14,15,25,13.40
2018,01,14,15,26,13.30
2018,01,14,15,27,13.20
2018,01,14,15,28,13.10
2018,01,14,15,29,13.00
2018,01,14,15,30,12.90
2018,01,14,15,31,12.90
2018,01,14,15,32,12.80
2018,01,14,15,33,12.80
2018,01,14,15,34,12.70
2018,01,14,15,35,12.70
2018,01,14,15,36,12.60
2018,01,14,15,37,12.50
2018,01,14,15,38,12.50
2018,01,14,15,39,12.50
2018,01,14,15,40,12.40
2018,01,14,15,41,12.40
2018,01,14,15,42,12.30
2018,01,14,15,43,12.30
2018,01,14,15,44,12.20
2018,01,14,15,45,12.10
2018,01,14,15,46,12.10
2018,01,14,15,47,12.00
2018,01,14,15,48,12.00
2018,01,14,15,49,12.00
2018,01,14,15,50,11.90
2018,01,14,15,51,11.80
2018,01,14,15,52,11.80
2018,01,14,15,53,11.70
2018,01,14,15,54,11.70
2018,01,14,15,55,11.60
2018,01,14,15,56,11.60
2018,01,14,15,57,11.50
2018,01,14,15,58,11.50
2018,01,14,15,59,11.50
2018,01,14,16,00,11.40
2018,01,14,16,01,11.40
2018,01,14,16,02,11.40
2018,01,14,16,03,11.30
2018,01,14,16,04,11.30
2018,01,14,16,05,11.30
2018,01,14,16,06,11.20
2018,01,14,16,07,11.20
2018,01,14,16,08,11.20
2018,01,14,16,09,11.10
2018,01,14,16,10,11.10
2018,01,14,16,11,11.00
2018,01,14,16,12,11.00
2018,01,14,16,13,11.00
2018,01,14,16,14,10.90
2018,01,14,16,15,10.90
2018,01,14,16,16,10.90
2018,01,14,16,17,10.90
2018,01,14,16,18,10.90
2018,01,14,16,19,10.90
2018,01,14,16,20,10.90
2018,01,14,16,21,10.90
2018,01,14,16,22,10.90
2018,01,14,16,23,10.90
2018,01,14,16,24,10.90
